Bucharest, Romania

1:47 AM EEST on July 27, 2016 (GMT +0300)
Bucharest

Weather History for 15420 - April, 2010

Change the Weather History Date:

Sunday, April 25, 2010

  Actual Average Record
Temperature  
Mean Temperature 55 °F -  
Max Temperature 61 °F 72 °F - ()
Min Temperature 49 °F 50 °F - ()
Degree Days  
Heating Degree Days 10    
Growing Degree Days 5 (Base 50)    
Moisture  
Dew Point 50 °F    
Average Humidity 79    
Maximum Humidity 100    
Minimum Humidity 46    
Precipitation  
Precipitation 0.00 in 0.09 in - ()
Sea Level Pressure  
Sea Level Pressure 30.23 in    
Wind  
Wind Speed 7 mph ()    
Max Wind Speed 15 mph    
Max Gust Speed -    
Visibility 6.0 miles    
Events Rain    
T = Trace of Precipitation, MM = Missing Value Source: Averaged Metar Reports

Daily Weather History Graph

Daily Weather History Graph

Search for Another Location

Airport or City:

Trip Planner

Search our weather history database for the weather conditions in past years. The results will help you decide how hot, cold, wet, or windy it might be!

Date:

Astronomy

Apr. 25, 2010 Rise Set
Actual Time 6:15 AM EEST 8:12 PM EEST
Civil Twilight 5:44 AM EEST 8:43 PM EEST
Nautical Twilight 5:06 AM EEST 9:22 PM EEST
Astronomical Twilight 4:24 AM EEST 10:04 PM EEST
Moon 4:52 PM EEST (4/25) 4:14 AM EEST (4/25)
Length of Visible Light 14h 59m
Length of Day
13h 56m
Waxing Gibbous, 87% of the Moon is Illuminated
Apr 25
Waxing Gibbous
Apr 28
Full
May 6
Last Quarter
May 14
New
May 21
First Quarter

Hourly Weather History & Observations

Time (EEST) Temp. Dew Point Humidity Pressure Visibility Wind Dir Wind Speed Gust Speed Precip Events Conditions
12:00 AM 58 °F 49 °F 64% 30.17 in 6 mi ENE 4.5 mph - -   Overcast
12:00 AM 59.0 °F 55.4 °F 88% 30.15 in - East 5.8 mph - N/A   Clear
12:30 AM 57.2 °F 53.6 °F 88% 30.15 in - ENE 8.1 mph - N/A   Clear
1:00 AM 56 °F 49 °F 70% 30.18 in 6 mi NE 6.7 mph - -   Overcast
1:00 AM 55.4 °F 53.6 °F 94% 30.15 in - East 8.1 mph - N/A   Clear
1:30 AM 55.4 °F 53.6 °F 94% 30.15 in - ENE 6.9 mph - N/A   Clear
2:00 AM 54 °F 48 °F 74% 30.19 in 6 mi NE 4.5 mph - -   Mostly Cloudy
2:00 AM 55.4 °F 51.8 °F 88% 30.15 in - ENE 6.9 mph - N/A   Clear
2:30 AM 55.4 °F 51.8 °F 88% 30.15 in - ENE 8.1 mph - N/A   Clear
3:00 AM 53 °F 48 °F 76% 30.17 in 6 mi NE 4.5 mph - -   Overcast
4:00 AM 51 °F 46 °F 79% 30.16 in 6 mi NE 4.5 mph - -   Scattered Clouds
4:00 AM 51.8 °F 50.0 °F 94% 30.12 in - ENE 8.1 mph - N/A   Clear
4:30 AM 51.8 °F 50.0 °F 94% 30.12 in - ENE 6.9 mph - N/A   Clear
5:00 AM 51.8 °F 50.0 °F 94% 30.15 in - ENE 8.1 mph - N/A   Clear
5:30 AM 51.8 °F 50.0 °F 94% 30.15 in - East 6.9 mph - N/A   Clear
6:00 AM 50 °F 47 °F 85% 30.18 in 6 mi NE 4.5 mph - -   Scattered Clouds
6:00 AM 50.0 °F 50.0 °F 100% 30.15 in - East 6.9 mph - N/A   Clear
6:30 AM 50.0 °F 50.0 °F 100% 30.15 in - East 6.9 mph - N/A   Clear
7:00 AM 49 °F 47 °F 92% 30.19 in 6 mi ENE 4.5 mph - -   Scattered Clouds
7:00 AM 51.8 °F 50.0 °F 94% 30.15 in - East 6.9 mph - N/A   Clear
7:30 AM 51.8 °F 50.0 °F 94% 30.18 in - East 6.9 mph - N/A   Clear
8:00 AM 50 °F 48 °F 91% 30.21 in 6 mi NE 6.7 mph - -   Partly Cloudy
8:00 AM 51.8 °F 51.8 °F 100% 30.18 in - East 8.1 mph - N/A   Clear
8:30 AM 53.6 °F 51.8 °F 94% 30.18 in - East 9.2 mph - N/A   Clear
9:00 AM 52 °F 49 °F 84% 30.22 in 6 mi NE 6.7 mph - -   Partly Cloudy
9:00 AM 53.6 °F 51.8 °F 94% 30.18 in - East 11.5 mph - N/A   Clear
9:30 AM 55.4 °F 51.8 °F 88% 30.21 in - East 12.7 mph - N/A   Clear
10:00 AM 55.4 °F 51.8 °F 88% 30.21 in - East 12.7 mph - N/A   Clear
10:30 AM 57.2 °F 51.8 °F 82% 30.21 in - East 13.8 mph - N/A   Clear
11:00 AM 56 °F 48 °F 66% 30.25 in 6 mi ENE 6.7 mph - -   Overcast
11:00 AM 57.2 °F 51.8 °F 82% 30.24 in 6.2 mi East 11.5 mph - N/A Rain Light Rain
11:30 AM 57.2 °F 51.8 °F 82% 30.24 in 6.2 mi East 15.0 mph - N/A Rain Light Rain
12:00 PM 56 °F 47 °F 62% 30.27 in 6 mi ENE 8.9 mph - -   Overcast
12:00 PM 57.2 °F 51.8 °F 82% 30.24 in - East 15.0 mph - N/A   Clear
12:30 PM 57.2 °F 53.6 °F 88% 30.24 in 6.2 mi East 12.7 mph - N/A Rain Light Rain
1:00 PM 57 °F 47 °F 60% 30.29 in 6 mi East 6.7 mph - -   Overcast
1:00 PM 59.0 °F 51.8 °F 77% 30.27 in 6.2 mi ESE 12.7 mph - N/A Rain Light Rain
1:30 PM 59.0 °F 51.8 °F 77% 30.24 in - East 13.8 mph - N/A   Clear
2:00 PM 58 °F 46 °F 54% 30.29 in 6 mi ENE 6.7 mph - - Rain Light Rain Showers
2:00 PM 59.0 °F 51.8 °F 77% 30.27 in - East 12.7 mph - N/A   Clear
2:30 PM 60.8 °F 53.6 °F 77% 30.27 in - East 10.4 mph - N/A   Clear
3:00 PM 60 °F 47 °F 52% 30.29 in 6 mi ENE 8.9 mph - -   Partly Cloudy
3:00 PM 60.8 °F 53.6 °F 77% 30.27 in - East 11.5 mph - N/A   Clear
3:30 PM 60.8 °F 51.8 °F 72% 30.27 in - East 12.7 mph - N/A   Clear
4:00 PM 60 °F 45 °F 47% 30.30 in 6 mi East 8.9 mph - -   Overcast
4:00 PM 60.8 °F 51.8 °F 72% 30.27 in - East 11.5 mph - N/A   Clear
4:30 PM 60.8 °F 51.8 °F 72% 30.24 in - East 11.5 mph - N/A   Clear
5:00 PM 60 °F 45 °F 46% 30.29 in 6 mi ENE 6.7 mph - -   Overcast
5:30 PM 60.8 °F 51.8 °F 72% 30.24 in - East 6.9 mph - N/A   Clear
6:00 PM 60 °F 45 °F 48% 30.29 in 6 mi ENE 4.5 mph - -   Overcast
6:00 PM 60.8 °F 51.8 °F 72% 30.24 in - East 9.2 mph - N/A   Clear
6:30 PM 60.8 °F 51.8 °F 72% 30.27 in - ESE 5.8 mph - N/A   Clear
7:00 PM 60 °F 45 °F 46% 30.29 in 6 mi East 6.7 mph - -   Overcast
7:00 PM 60.8 °F 53.6 °F 77% 30.27 in - SE 5.8 mph - N/A   Clear
7:30 PM 60.8 °F 53.6 °F 77% 30.27 in - ESE 4.6 mph - N/A   Clear
8:00 PM 59 °F 46 °F 51% 30.29 in 6 mi East 4.5 mph - -   Overcast
8:00 PM 59.0 °F 53.6 °F 82% 30.27 in - SE 4.6 mph - N/A   Clear
8:30 PM 57.2 °F 53.6 °F 88% 30.27 in - ESE 4.6 mph - N/A   Clear
9:00 PM 56 °F 47 °F 63% 30.30 in 6 mi East 2.2 mph - -   Overcast
9:00 PM 57.2 °F 53.6 °F 88% 30.27 in - ESE 3.5 mph - N/A   Clear
9:30 PM 57.2 °F 53.6 °F 88% 30.30 in - ENE 2.3 mph - N/A   Clear
10:00 PM 54 °F 49 °F 77% 30.33 in 6 mi NE 2.2 mph - -   Mostly Cloudy
10:00 PM 57.2 °F 51.8 °F 82% 30.30 in - ENE 3.5 mph - N/A   Clear
10:30 PM 57.2 °F 53.6 °F 88% 30.30 in - East 9.2 mph - N/A   Clear
11:00 PM 56 °F 48 °F 68% 30.34 in 6 mi ENE 6.7 mph - -   Partly Cloudy
11:00 PM 57.2 °F 51.8 °F 82% 30.30 in - East 10.4 mph - N/A   Clear
11:30 PM 57.2 °F 51.8 °F 82% 30.30 in - ENE 11.5 mph - N/A   Clear